TimeCDT,TemperatureF,Dew PointF,Humidity,Sea Level PressureIn,VisibilityMPH,Wind Direction,Wind SpeedMPH,Gust SpeedMPH,PrecipitationIn,Events,Conditions,WindDirDegrees,DateUTC
12:15 AM,59.4,54.7,84,29.90,10.0,SW,5.8,-,N/A,,Overcast,230,2012-10-03 05:15:00
12:35 AM,59.9,54.1,81,29.89,10.0,SSW,3.5,-,N/A,,Overcast,200,2012-10-03 05:35:00
12:55 AM,59.5,54.0,82,29.89,10.0,SSE,3.5,-,N/A,,Overcast,160,2012-10-03 05:55:00
1:15 AM,61.3,51.3,69,29.89,7.0,SSW,4.6,-,N/A,,Overcast,200,2012-10-03 06:15:00
1:35 AM,61.7,52.0,70,29.90,10.0,SW,3.5,-,N/A,,Overcast,230,2012-10-03 06:35:00
1:55 AM,61.3,52.2,72,29.91,10.0,SW,3.5,-,N/A,,Overcast,230,2012-10-03 06:55:00
2:15 AM,61.7,51.4,69,29.91,10.0,SW,4.6,-,N/A,,Overcast,230,2012-10-03 07:15:00
2:35 AM,61.7,51.1,68,29.91,10.0,SW,4.6,-,N/A,,Overcast,220,2012-10-03 07:35:00
2:55 AM,59.5,53.4,80,29.92,10.0,ENE,3.5,-,N/A,,Overcast,60,2012-10-03 07:55:00
3:15 AM,61.0,51.8,72,29.92,10.0,Calm,Calm,-,N/A,,Overcast,0,2012-10-03 08:15:00
3:35 AM,61.2,51.1,69,29.92,10.0,SSW,4.6,-,N/A,,Mostly Cloudy,210,2012-10-03 08:35:00
3:55 AM,61.3,50.9,69,29.91,10.0,SW,4.6,-,N/A,,Mostly Cloudy,230,2012-10-03 08:55:00
4:15 AM,61.0,51.1,70,29.92,10.0,SW,4.6,-,N/A,,Mostly Cloudy,220,2012-10-03 09:15:00
4:35 AM,60.8,51.4,71,29.92,10.0,SW,3.5,-,N/A,,Overcast,220,2012-10-03 09:35:00
4:55 AM,61.0,51.1,70,29.93,10.0,SW,3.5,-,N/A,,Overcast,230,2012-10-03 09:55:00
5:15 AM,61.3,50.9,69,29.93,10.0,Calm,Calm,-,N/A,,Overcast,0,2012-10-03 10:15:00
5:35 AM,61.0,50.9,69,29.94,10.0,SW,3.5,-,N/A,,Overcast,220,2012-10-03 10:35:00
5:55 AM,60.4,50.9,71,29.94,10.0,SSW,4.6,-,N/A,Rain,Light Rain,200,2012-10-03 10:55:00
6:15 AM,59.9,51.6,74,29.95,10.0,South,5.8,-,N/A,,Overcast,180,2012-10-03 11:15:00
6:35 AM,59.9,51.8,75,29.95,10.0,SW,4.6,-,N/A,,Overcast,220,2012-10-03 11:35:00
6:55 AM,59.7,51.8,75,29.95,10.0,SSW,4.6,-,N/A,,Overcast,200,2012-10-03 11:55:00
7:15 AM,60.1,51.3,73,29.96,10.0,SW,4.6,-,N/A,,Overcast,220,2012-10-03 12:15:00
7:35 AM,60.6,51.4,72,29.96,10.0,SW,3.5,-,N/A,,Overcast,220,2012-10-03 12:35:00
7:55 AM,61.0,51.3,70,29.97,10.0,SW,3.5,-,N/A,,Overcast,230,2012-10-03 12:55:00
8:15 AM,60.8,52.3,74,29.97,10.0,Calm,Calm,-,N/A,,Overcast,0,2012-10-03 13:15:00
8:35 AM,61.7,52.3,71,29.97,10.0,Calm,Calm,-,N/A,,Overcast,0,2012-10-03 13:35:00
8:55 AM,62.1,51.6,69,29.97,10.0,SW,3.5,-,N/A,,Overcast,220,2012-10-03 13:55:00
9:15 AM,62.2,52.5,70,29.98,10.0,Calm,Calm,-,N/A,,Overcast,0,2012-10-03 14:15:00
9:35 AM,63.3,52.9,69,29.99,10.0,Calm,Calm,-,N/A,,Overcast,0,2012-10-03 14:35:00
9:55 AM,64.4,51.8,64,30.00,10.0,Calm,Calm,-,N/A,,Mostly Cloudy,0,2012-10-03 14:55:00
10:15 AM,64.0,50.9,62,29.99,10.0,Calm,Calm,-,N/A,,Overcast,0,2012-10-03 15:15:00
10:35 AM,64.6,50.9,61,29.99,10.0,Calm,Calm,-,N/A,,Overcast,0,2012-10-03 15:35:00
10:55 AM,65.7,51.8,61,29.99,10.0,SE,3.5,-,N/A,,Overcast,130,2012-10-03 15:55:00
11:15 AM,66.6,52.2,60,29.99,10.0,SE,3.5,-,N/A,,Overcast,140,2012-10-03 16:15:00
11:35 AM,67.1,52.0,58,29.99,10.0,SSW,3.5,-,N/A,,Overcast,200,2012-10-03 16:35:00
11:55 AM,67.3,52.0,58,30.00,10.0,South,3.5,-,N/A,,Overcast,190,2012-10-03 16:55:00
12:15 PM,67.1,54.7,64,29.99,10.0,South,5.8,-,N/A,,Overcast,180,2012-10-03 17:15:00
12:35 PM,66.9,55.2,66,30.00,10.0,South,6.9,-,N/A,,Overcast,170,2012-10-03 17:35:00
12:55 PM,67.1,55.0,65,29.99,10.0,SSW,4.6,-,N/A,,Overcast,200,2012-10-03 17:55:00
1:15 PM,67.6,55.2,64,29.99,10.0,SW,3.5,-,N/A,,Mostly Cloudy,230,2012-10-03 18:15:00
1:35 PM,69.1,54.1,59,29.98,10.0,Calm,Calm,-,N/A,,Mostly Cloudy,0,2012-10-03 18:35:00
1:55 PM,69.6,53.4,56,29.98,10.0,SSW,5.8,-,N/A,,Overcast,210,2012-10-03 18:55:00
2:15 PM,70.3,53.2,55,29.97,10.0,South,6.9,-,N/A,,Overcast,190,2012-10-03 19:15:00
2:35 PM,70.7,53.8,55,29.97,10.0,South,4.6,-,N/A,,Overcast,180,2012-10-03 19:35:00
2:55 PM,71.4,53.6,53,29.97,10.0,SW,5.8,-,N/A,,Mostly Cloudy,220,2012-10-03 19:55:00
3:15 PM,71.8,52.7,51,29.97,10.0,SSW,6.9,-,N/A,,Scattered Clouds,210,2012-10-03 20:15:00
3:35 PM,71.6,51.6,49,29.96,10.0,SW,5.8,-,N/A,,Clear,220,2012-10-03 20:35:00
3:55 PM,71.8,50.9,48,29.96,10.0,SW,5.8,-,N/A,,Scattered Clouds,220,2012-10-03 20:55:00
4:15 PM,71.8,50.4,47,29.97,10.0,SSW,9.2,-,N/A,,Scattered Clouds,210,2012-10-03 21:15:00
4:35 PM,71.6,50.0,46,29.97,10.0,SSW,4.6,-,N/A,,Scattered Clouds,210,2012-10-03 21:35:00
4:55 PM,71.6,50.0,46,29.97,10.0,SSW,8.1,-,N/A,,Scattered Clouds,200,2012-10-03 21:55:00
5:15 PM,71.2,49.1,45,29.98,10.0,SSW,8.1,-,N/A,,Mostly Cloudy,210,2012-10-03 22:15:00
5:35 PM,70.7,48.4,45,29.98,10.0,SSW,6.9,-,N/A,,Scattered Clouds,210,2012-10-03 22:35:00
5:55 PM,70.0,49.1,47,29.99,10.0,SSW,4.6,-,N/A,,Scattered Clouds,200,2012-10-03 22:55:00
6:15 PM,69.1,50.0,51,29.99,10.0,SW,4.6,-,N/A,,Mostly Cloudy,220,2012-10-03 23:15:00
6:35 PM,68.7,50.2,52,30.00,10.0,SW,4.6,-,N/A,Rain,Light Rain,220,2012-10-03 23:35:00
6:55 PM,67.5,50.7,55,30.00,10.0,SW,4.6,-,N/A,,Light Drizzle,230,2012-10-03 23:55:00
7:15 PM,67.1,51.4,57,30.00,10.0,SW,5.8,-,N/A,Rain,Rain,230,2012-10-04 00:15:00
7:35 PM,64.0,53.4,68,30.01,10.0,South,4.6,-,N/A,Rain,Light Rain,170,2012-10-04 00:35:00
7:55 PM,63.1,53.8,71,30.02,10.0,SSE,3.5,-,N/A,Rain,Light Rain,160,2012-10-04 00:55:00
8:15 PM,63.5,52.7,68,30.02,10.0,South,4.6,-,N/A,,Overcast,180,2012-10-04 01:15:00
8:35 PM,62.6,53.1,71,30.03,10.0,South,4.6,-,N/A,,Scattered Clouds,180,2012-10-04 01:35:00
8:55 PM,62.6,53.2,71,30.03,10.0,South,4.6,-,N/A,,Mostly Cloudy,170,2012-10-04 01:55:00
9:15 PM,63.1,53.1,70,30.03,10.0,South,3.5,-,N/A,,Overcast,190,2012-10-04 02:15:00
9:35 PM,62.4,53.2,72,30.03,10.0,South,3.5,-,N/A,,Overcast,180,2012-10-04 02:35:00
9:55 PM,62.4,53.1,71,30.04,10.0,SSW,3.5,-,N/A,,Mostly Cloudy,200,2012-10-04 02:55:00
10:15 PM,59.7,52.3,77,30.04,10.0,South,3.5,-,N/A,,Scattered Clouds,180,2012-10-04 03:15:00
10:35 PM,58.5,52.3,80,30.05,5.0,South,4.6,-,N/A,,Haze,170,2012-10-04 03:35:00
10:55 PM,58.8,52.9,81,30.05,10.0,South,3.5,-,N/A,,Clear,170,2012-10-04 03:55:00
11:35 PM,57.7,53.1,84,30.05,7.0,South,3.5,-,N/A,,Clear,180,2012-10-04 04:35:00
11:55 PM,58.3,53.4,84,30.05,10.0,South,4.6,-,N/A,,Clear,180,2012-10-04 04:55:00